SIA298A NZCH-WSSS

Flight info

Callsign SIA298A
Flight time N/A
Altitude 36000
Route VANDA N750 PLUGA M636 TESAT A576 MACLA/N0481F400 A576 ATMAP M635 SURGA
Aircraft A359/H-SDE1E2E3GHIJ1J2J3J5M1P2RWXYZ/LB1D1

Departure

Time 2026-04-27 12:40
Airport Christchurch International Airport (NZCH)

Arrival

Time N/A
Airport Singapore Changi Airport (WSSS)
Time Latitude Longitude Altitude Speed Heading
2026-04-27 12:27 -43.48631 172.54067 112 ft 0 kts 206°
2026-04-27 12:29 -43.48626 172.54070 115 ft 4 kts 206°
2026-04-27 12:30 -43.48608 172.54083 111 ft 4 kts 195°
2026-04-27 12:30 -43.48585 172.54083 114 ft 4 kts 198°
2026-04-27 12:30 -43.48563 172.54099 110 ft 4 kts 226°
2026-04-27 12:30 -43.48552 172.54128 114 ft 4 kts 275°
2026-04-27 12:31 -43.48561 172.54161 112 ft 4 kts 306°
2026-04-27 12:31 -43.48578 172.54189 114 ft 4 kts 313°
2026-04-27 12:31 -43.48587 172.54202 114 ft 0 kts 310°
2026-04-27 12:33 -43.48582 172.54195 114 ft 4 kts 309°
2026-04-27 12:33 -43.48548 172.54136 112 ft 10 kts 309°
2026-04-27 12:34 -43.48517 172.54049 112 ft 11 kts 275°
2026-04-27 12:34 -43.48543 172.53956 115 ft 11 kts 230°
2026-04-27 12:34 -43.48601 172.53886 112 ft 11 kts 219°
2026-04-27 12:34 -43.48665 172.53811 111 ft 13 kts 220°
2026-04-27 12:35 -43.48736 172.53729 112 ft 14 kts 219°
2026-04-27 12:35 -43.48814 172.53640 112 ft 15 kts 220°
2026-04-27 12:35 -43.48899 172.53548 113 ft 16 kts 214°
2026-04-27 12:35 -43.48981 172.53461 117 ft 14 kts 219°
2026-04-27 12:36 -43.49062 172.53369 119 ft 16 kts 220°
2026-04-27 12:36 -43.49146 172.53272 119 ft 15 kts 221°
2026-04-27 12:36 -43.49223 172.53181 125 ft 15 kts 220°
2026-04-27 12:36 -43.49299 172.53092 122 ft 13 kts 220°
2026-04-27 12:37 -43.49365 172.53015 128 ft 13 kts 219°
2026-04-27 12:37 -43.49446 172.52923 131 ft 18 kts 220°
2026-04-27 12:37 -43.49541 172.52813 135 ft 17 kts 220°
2026-04-27 12:37 -43.49638 172.52703 133 ft 19 kts 220°
2026-04-27 12:38 -43.49736 172.52591 134 ft 18 kts 220°
2026-04-27 12:38 -43.49795 172.52448 133 ft 18 kts 270°
2026-04-27 12:38 -43.49780 172.52277 133 ft 18 kts 292°
2026-04-27 12:38 -43.49708 172.52270 131 ft 11 kts 41°
2026-04-27 12:39 -43.49626 172.52368 130 ft 32 kts 40°
2026-04-27 12:39 -43.49284 172.52766 126 ft 95 kts 40°
2026-04-27 12:39 -43.48631 172.53517 118 ft 148 kts 40°
2026-04-27 12:39 -43.47781 172.54512 450 ft 164 kts 40°
2026-04-27 12:40 -43.46924 172.55503 1116 ft 159 kts 37°
2026-04-27 12:40 -43.45935 172.56273 1515 ft 171 kts 22°
2026-04-27 12:40 -43.44761 172.56899 1773 ft 191 kts 21°
2026-04-27 12:40 -43.43460 172.57614 2004 ft 212 kts 22°
2026-04-27 12:41 -43.42054 172.58452 2339 ft 228 kts 24°
2026-04-27 12:41 -43.40534 172.59342 2634 ft 247 kts 18°
2026-04-27 12:41 -43.38815 172.59514 3114 ft 252 kts 346°
2026-04-27 12:41 -43.37304 172.58333 3708 ft 256 kts 311°
2026-04-27 12:42 -43.36311 172.56296 4304 ft 259 kts 298°
2026-04-27 12:42 -43.35452 172.54093 4914 ft 264 kts 297°
2026-04-27 12:42 -43.34583 172.51857 5561 ft 267 kts 297°
2026-04-27 12:42 -43.33689 172.49593 6194 ft 272 kts 297°
2026-04-27 12:43 -43.32774 172.47298 6848 ft 275 kts 297°
2026-04-27 12:43 -43.31858 172.45018 7544 ft 277 kts 296°
2026-04-27 12:43 -43.30908 172.42664 8279 ft 279 kts 296°
2026-04-27 12:43 -43.29961 172.40322 8982 ft 282 kts 296°
2026-04-27 12:44 -43.29006 172.37962 9677 ft 284 kts 296°
2026-04-27 12:44 -43.28037 172.35576 10332 ft 289 kts 296°
2026-04-27 12:44 -43.26931 172.33172 10654 ft 308 kts 303°
2026-04-27 12:44 -43.25607 172.30758 10970 ft 325 kts 304°
2026-04-27 12:45 -43.24185 172.28252 11271 ft 341 kts 304°
2026-04-27 12:45 -43.22694 172.25628 11566 ft 356 kts 304°
2026-04-27 12:45 -43.21153 172.22912 12042 ft 364 kts 304°
2026-04-27 12:45 -43.19588 172.20159 12690 ft 367 kts 304°
2026-04-27 12:46 -43.18019 172.17390 13291 ft 371 kts 304°
2026-04-27 12:46 -43.16450 172.14628 13895 ft 373 kts 304°
2026-04-27 12:46 -43.14850 172.11814 14490 ft 376 kts 304°
2026-04-27 12:46 -43.13238 172.08979 15128 ft 377 kts 303°
2026-04-27 12:47 -43.11622 172.06139 15699 ft 381 kts 303°
2026-04-27 12:47 -43.09989 172.03265 16270 ft 384 kts 303°
2026-04-27 12:47 -43.08342 172.00371 16829 ft 386 kts 303°
2026-04-27 12:47 -43.06682 171.97467 17404 ft 388 kts 303°
2026-04-27 12:48 -43.05019 171.94557 17998 ft 390 kts 303°
2026-04-27 12:48 -43.03344 171.91624 18556 ft 393 kts 303°
2026-04-27 12:48 -43.01653 171.88666 19060 ft 396 kts 303°
2026-04-27 12:48 -42.99943 171.85683 19549 ft 402 kts 303°
2026-04-27 12:49 -42.98211 171.82684 20191 ft 403 kts 304°
2026-04-27 12:49 -42.96478 171.79668 20745 ft 405 kts 304°
2026-04-27 12:49 -42.94735 171.76622 21224 ft 409 kts 304°
2026-04-27 12:49 -42.92976 171.73556 21714 ft 412 kts 304°
2026-04-27 12:50 -42.91201 171.70460 22165 ft 416 kts 304°
2026-04-27 12:50 -42.89416 171.67341 22683 ft 417 kts 303°
2026-04-27 12:50 -42.87825 171.64043 23138 ft 416 kts 295°
2026-04-27 12:50 -42.86673 171.60439 23603 ft 415 kts 285°
2026-04-27 12:51 -42.85885 171.56647 24037 ft 417 kts 282°
2026-04-27 12:51 -42.85179 171.52800 24464 ft 420 kts 282°
2026-04-27 12:51 -42.84472 171.48927 24909 ft 422 kts 282°
2026-04-27 12:51 -42.83755 171.45035 25367 ft 424 kts 282°
2026-04-27 12:52 -42.83029 171.41133 25829 ft 426 kts 282°
2026-04-27 12:52 -42.82297 171.37216 26255 ft 428 kts 282°
2026-04-27 12:52 -42.81557 171.33274 26633 ft 431 kts 282°
2026-04-27 12:52 -42.80810 171.29314 27019 ft 433 kts 282°
2026-04-27 12:53 -42.79304 171.21344 27866 ft 437 kts 282°
2026-04-27 12:53 -42.78545 171.17331 28261 ft 438 kts 282°
2026-04-27 12:53 -42.77781 171.13307 28630 ft 441 kts 282°
2026-04-27 12:54 -42.77010 171.09258 29006 ft 443 kts 282°
2026-04-27 12:54 -42.76238 171.05202 29371 ft 444 kts 283°
2026-04-27 12:54 -42.75722 171.02499 29587 ft 446 kts 283°
2026-04-27 12:54 -42.74674 170.97032 30055 ft 448 kts 283°
2026-04-27 12:55 -42.73885 170.92922 30306 ft 451 kts 283°
2026-04-27 12:55 -42.73089 170.88789 30584 ft 453 kts 283°
2026-04-27 12:55 -42.72289 170.84644 30890 ft 454 kts 283°
2026-04-27 12:55 -42.71485 170.80484 31148 ft 455 kts 283°
2026-04-27 12:56 -42.70682 170.76334 31551 ft 453 kts 283°
2026-04-27 12:56 -42.69879 170.72196 31935 ft 452 kts 283°
2026-04-27 12:56 -42.69078 170.68077 32334 ft 450 kts 283°
2026-04-27 12:56 -42.68548 170.65358 32563 ft 449 kts 283°
2026-04-27 12:57 -42.67750 170.61267 32884 ft 448 kts 283°
2026-04-27 12:57 -42.66692 170.55857 33303 ft 446 kts 283°
2026-04-27 12:57 -42.65895 170.51791 33653 ft 444 kts 283°
2026-04-27 12:57 -42.65100 170.47742 33950 ft 444 kts 283°
2026-04-27 12:58 -42.64304 170.43699 34195 ft 443 kts 283°
2026-04-27 12:58 -42.63765 170.40967 34366 ft 443 kts 283°
2026-04-27 12:58 -42.62965 170.36926 34611 ft 443 kts 283°
2026-04-27 12:58 -42.62177 170.32944 34833 ft 442 kts 283°
2026-04-27 12:59 -42.61379 170.28918 35060 ft 442 kts 283°
2026-04-27 12:59 -42.60578 170.24886 35294 ft 441 kts 283°
2026-04-27 12:59 -42.59767 170.20812 35474 ft 442 kts 283°
2026-04-27 12:59 -42.58974 170.16838 35682 ft 441 kts 283°
2026-04-27 13:00 -42.58172 170.12825 35890 ft 441 kts 283°
2026-04-27 13:00 -42.57368 170.08815 36076 ft 441 kts 283°
2026-04-27 13:00 -42.56563 170.04805 36189 ft 442 kts 283°
2026-04-27 13:00 -42.55750 170.00761 36204 ft 446 kts 283°
2026-04-27 13:01 -42.54110 169.92628 36201 ft 447 kts 283°
2026-04-27 13:01 -42.52467 169.84517 36201 ft 445 kts 283°
2026-04-27 13:02 -42.50820 169.76419 36202 ft 446 kts 283°
2026-04-27 13:02 -42.49167 169.68321 36208 ft 446 kts 283°
2026-04-27 13:03 -42.47508 169.60235 36211 ft 446 kts 283°
2026-04-27 13:03 -42.45843 169.52140 36211 ft 446 kts 283°
2026-04-27 13:04 -42.44172 169.44054 36211 ft 446 kts 283°
2026-04-27 13:04 -42.42465 169.35986 36209 ft 447 kts 286°
2026-04-27 13:05 -42.40010 169.28233 36211 ft 449 kts 292°
2026-04-27 13:05 -42.37248 169.20644 36211 ft 450 kts 294°
2026-04-27 13:06 -42.34445 169.13077 36211 ft 450 kts 293°
2026-04-27 13:06 -42.31661 169.05506 36211 ft 450 kts 293°
2026-04-27 13:07 -42.28886 168.97934 36211 ft 450 kts 293°
2026-04-27 13:07 -42.26113 168.90365 36211 ft 450 kts 293°
2026-04-27 13:08 -42.23333 168.82807 36211 ft 449 kts 293°
2026-04-27 13:08 -42.20550 168.75259 36203 ft 449 kts 293°
2026-04-27 13:09 -42.17762 168.67717 36224 ft 450 kts 294°
2026-04-27 13:09 -42.14966 168.60172 36230 ft 450 kts 294°
2026-04-27 13:10 -42.12160 168.52628 36229 ft 450 kts 294°
2026-04-27 13:10 -42.09354 168.45090 36229 ft 450 kts 294°
2026-04-27 13:11 -42.06540 168.37559 36229 ft 451 kts 294°
2026-04-27 13:11 -42.03716 168.30023 36230 ft 451 kts 294°
2026-04-27 13:12 -42.00906 168.22543 36229 ft 451 kts 294°
2026-04-27 13:12 -41.98053 168.14969 36230 ft 451 kts 294°
2026-04-27 13:13 -41.95232 168.07499 36229 ft 451 kts 294°
2026-04-27 13:13 -41.92389 167.99991 36230 ft 451 kts 294°
2026-04-27 13:14 -41.89522 167.92435 36229 ft 451 kts 294°
2026-04-27 13:14 -41.86686 167.84983 36229 ft 451 kts 294°
2026-04-27 13:15 -41.83827 167.77491 36229 ft 451 kts 294°
2026-04-27 13:15 -41.80960 167.69997 36229 ft 452 kts 294°
2026-04-27 13:16 -41.78085 167.62504 36229 ft 452 kts 294°
2026-04-27 13:16 -41.75203 167.55007 36230 ft 453 kts 294°
2026-04-27 13:17 -41.72314 167.47511 36230 ft 453 kts 295°
2026-04-27 13:17 -41.69415 167.40017 36229 ft 454 kts 295°
2026-04-27 13:18 -41.66509 167.32517 36230 ft 454 kts 295°
2026-04-27 13:18 -41.63602 167.25031 36229 ft 454 kts 295°
2026-04-27 13:19 -41.60684 167.17538 36230 ft 454 kts 295°
2026-04-27 13:19 -41.57761 167.10053 36229 ft 455 kts 295°
2026-04-27 13:20 -41.54826 167.02559 36230 ft 456 kts 295°
2026-04-27 13:20 -41.51881 166.95060 36230 ft 456 kts 295°
2026-04-27 13:21 -41.48934 166.87575 36229 ft 456 kts 295°
2026-04-27 13:21 -41.45979 166.80087 36229 ft 456 kts 295°
2026-04-27 13:22 -41.43040 166.72654 36230 ft 457 kts 295°
2026-04-27 13:22 -41.40053 166.65125 36229 ft 457 kts 296°
2026-04-27 13:23 -41.37081 166.57647 36230 ft 457 kts 296°
2026-04-27 13:23 -41.34103 166.50174 36230 ft 457 kts 296°
2026-04-27 13:24 -41.31113 166.42693 36230 ft 458 kts 296°
2026-04-27 13:24 -41.28140 166.35276 36230 ft 458 kts 296°
2026-04-27 13:25 -41.25144 166.27819 36230 ft 458 kts 296°
2026-04-27 13:25 -41.22140 166.20356 36230 ft 458 kts 296°
2026-04-27 13:26 -41.19134 166.12904 36230 ft 458 kts 296°
2026-04-27 13:26 -41.16124 166.05467 36229 ft 458 kts 296°
2026-04-27 13:27 -41.13106 165.98026 36228 ft 458 kts 296°
2026-04-27 13:27 -41.10077 165.90579 36229 ft 459 kts 296°
2026-04-27 13:28 -41.07040 165.83132 36229 ft 459 kts 296°
2026-04-27 13:28 -41.03998 165.75692 36230 ft 459 kts 296°
2026-04-27 13:29 -41.00955 165.68267 36234 ft 459 kts 297°
2026-04-27 13:29 -40.97900 165.60836 36238 ft 459 kts 297°
2026-04-27 13:30 -40.94841 165.53407 36239 ft 460 kts 297°
2026-04-27 13:30 -40.91779 165.45988 36239 ft 460 kts 297°
2026-04-27 13:31 -40.88711 165.38573 36238 ft 459 kts 297°
2026-04-27 13:31 -40.85661 165.31215 36238 ft 460 kts 297°
2026-04-27 13:32 -40.82562 165.23768 36238 ft 460 kts 297°
2026-04-27 13:32 -40.79501 165.16429 36238 ft 460 kts 297°
2026-04-27 13:33 -40.76413 165.09039 36237 ft 460 kts 297°
2026-04-27 13:33 -40.73317 165.01648 36238 ft 460 kts 297°
2026-04-27 13:34 -40.70218 164.94269 36237 ft 460 kts 297°
2026-04-27 13:34 -40.67112 164.86893 36238 ft 460 kts 297°
2026-04-27 13:35 -40.64005 164.79529 36238 ft 460 kts 297°
2026-04-27 13:35 -40.60885 164.72153 36239 ft 461 kts 297°
2026-04-27 13:36 -40.57760 164.64787 36239 ft 461 kts 297°
2026-04-27 13:36 -40.54628 164.57426 36240 ft 461 kts 297°
2026-04-27 13:37 -40.51496 164.50077 36239 ft 461 kts 298°
2026-04-27 13:37 -40.48357 164.42729 36237 ft 461 kts 298°
2026-04-27 13:38 -40.45212 164.35384 36239 ft 462 kts 298°
2026-04-27 13:38 -40.42057 164.28041 36239 ft 462 kts 298°
2026-04-27 13:39 -40.38895 164.20696 36239 ft 462 kts 298°
2026-04-27 13:39 -40.35735 164.13365 36240 ft 462 kts 298°
2026-04-27 13:40 -40.32564 164.06029 36239 ft 463 kts 298°
2026-04-27 13:40 -40.29386 163.98696 36239 ft 463 kts 298°
2026-04-27 13:41 -40.26204 163.91374 36238 ft 463 kts 298°
2026-04-27 13:41 -40.23017 163.84056 36238 ft 463 kts 298°
2026-04-27 13:42 -40.19825 163.76741 36239 ft 462 kts 298°
2026-04-27 13:42 -40.16632 163.69445 36238 ft 462 kts 298°
2026-04-27 13:43 -40.13432 163.62154 36238 ft 462 kts 298°
2026-04-27 13:43 -40.10232 163.54875 36238 ft 462 kts 298°
2026-04-27 13:44 -40.07569 163.48832 36240 ft 462 kts 298°
2026-04-27 13:44 -40.04359 163.41562 36239 ft 462 kts 298°
2026-04-27 13:45 -40.01143 163.34300 36247 ft 462 kts 298°
2026-04-27 13:45 -39.97922 163.27043 36243 ft 463 kts 299°
2026-04-27 13:46 -39.94684 163.19759 36231 ft 466 kts 299°
2026-04-27 13:46 -39.91430 163.12457 36228 ft 466 kts 299°
2026-04-27 13:47 -39.88168 163.05153 36229 ft 467 kts 299°
2026-04-27 13:47 -39.84894 162.97848 36229 ft 467 kts 299°
2026-04-27 13:48 -39.81610 162.90541 36229 ft 468 kts 299°
2026-04-27 13:48 -39.78322 162.83237 36229 ft 468 kts 299°
2026-04-27 13:49 -39.75026 162.75934 36229 ft 468 kts 299°
2026-04-27 13:49 -39.71729 162.68644 36229 ft 468 kts 299°
2026-04-27 13:50 -39.68422 162.61347 36230 ft 469 kts 299°
2026-04-27 13:50 -39.65130 162.54104 36230 ft 469 kts 299°
2026-04-27 13:51 -39.61808 162.46817 36229 ft 469 kts 299°
2026-04-27 13:51 -39.58483 162.39540 36239 ft 469 kts 299°
2026-04-27 13:52 -39.55152 162.32262 36238 ft 469 kts 299°
2026-04-27 13:52 -39.51820 162.24997 36238 ft 469 kts 300°
2026-04-27 13:53 -39.46816 162.14121 36238 ft 469 kts 300°
2026-04-27 13:54 -39.43466 162.06860 36239 ft 469 kts 300°
2026-04-27 13:54 -39.40115 161.99610 36238 ft 469 kts 300°
2026-04-27 13:55 -39.36762 161.92377 36238 ft 470 kts 300°
2026-04-27 13:55 -39.33399 161.85144 36239 ft 469 kts 300°
2026-04-27 13:56 -39.30033 161.77914 36239 ft 470 kts 300°
2026-04-27 13:56 -39.26658 161.70682 36237 ft 471 kts 300°
2026-04-27 13:57 -39.23270 161.63441 36238 ft 471 kts 300°
2026-04-27 13:57 -39.19878 161.56204 36240 ft 471 kts 300°
2026-04-27 13:58 -39.16482 161.48972 36239 ft 472 kts 300°
2026-04-27 13:58 -39.13080 161.41752 36238 ft 472 kts 300°
2026-04-27 13:59 -39.09667 161.34526 36238 ft 472 kts 300°
2026-04-27 13:59 -39.06248 161.27301 36248 ft 473 kts 300°
2026-04-27 14:00 -39.02821 161.20077 36244 ft 474 kts 300°
2026-04-27 14:00 -38.99385 161.12852 36248 ft 474 kts 300°
2026-04-27 14:01 -38.95944 161.05624 36244 ft 474 kts 300°
2026-04-27 14:01 -38.92502 160.98413 36248 ft 474 kts 300°
2026-04-27 14:02 -38.89052 160.91212 36247 ft 474 kts 300°
2026-04-27 14:02 -38.85598 160.84011 36250 ft 474 kts 300°
2026-04-27 14:03 -38.82142 160.76815 36246 ft 474 kts 300°
2026-04-27 14:03 -38.78703 160.69680 36244 ft 474 kts 300°
2026-04-27 14:04 -38.75234 160.62497 36244 ft 474 kts 301°
2026-04-27 14:04 -38.71757 160.55310 36248 ft 475 kts 301°
2026-04-27 14:05 -38.68275 160.48136 36245 ft 475 kts 301°
2026-04-27 14:05 -38.64787 160.40957 36248 ft 475 kts 301°
2026-04-27 14:06 -38.61295 160.33792 36250 ft 475 kts 301°
2026-04-27 14:06 -38.57797 160.26626 36249 ft 475 kts 301°
2026-04-27 14:07 -38.54289 160.19458 36247 ft 476 kts 301°
2026-04-27 14:07 -38.50774 160.12293 36245 ft 476 kts 301°
2026-04-27 14:08 -38.47256 160.05136 36245 ft 476 kts 301°
2026-04-27 14:08 -38.43730 159.97982 36249 ft 476 kts 301°
2026-04-27 14:09 -38.40204 159.90844 36248 ft 476 kts 301°
2026-04-27 14:09 -38.36671 159.83702 36245 ft 476 kts 301°
2026-04-27 14:10 -38.33132 159.76565 36256 ft 476 kts 301°
2026-04-27 14:10 -38.29589 159.69439 36257 ft 476 kts 301°
2026-04-27 14:11 -38.26044 159.62320 36257 ft 476 kts 301°
2026-04-27 14:11 -38.22492 159.55206 36257 ft 476 kts 301°
2026-04-27 14:12 -38.18940 159.48103 36257 ft 476 kts 301°
2026-04-27 14:12 -38.15409 159.41060 36257 ft 476 kts 301°
2026-04-27 14:13 -38.11847 159.33968 36257 ft 476 kts 301°
2026-04-27 14:13 -38.08280 159.26886 36257 ft 476 kts 301°
2026-04-27 14:14 -38.04710 159.19814 36257 ft 476 kts 301°
2026-04-27 14:14 -38.01135 159.12744 36257 ft 475 kts 301°
2026-04-27 14:15 -37.97563 159.05691 36256 ft 476 kts 302°
2026-04-27 14:15 -37.93957 158.98594 36294 ft 481 kts 302°
2026-04-27 14:16 -37.90330 158.91475 36293 ft 481 kts 302°
2026-04-27 14:16 -37.86703 158.84364 36293 ft 481 kts 302°
2026-04-27 14:17 -37.83068 158.77255 36296 ft 481 kts 302°
2026-04-27 14:17 -37.79426 158.70146 36293 ft 481 kts 302°
2026-04-27 14:18 -37.75788 158.63058 36294 ft 480 kts 302°
2026-04-27 14:18 -37.72145 158.55977 36293 ft 480 kts 302°
2026-04-27 14:19 -37.68503 158.48916 36295 ft 480 kts 302°
2026-04-27 14:19 -37.64854 158.41853 36295 ft 480 kts 302°
2026-04-27 14:20 -37.61202 158.34802 36294 ft 480 kts 302°
2026-04-27 14:20 -37.57547 158.27760 36294 ft 480 kts 302°
2026-04-27 14:21 -37.53889 158.20728 36294 ft 480 kts 302°
2026-04-27 14:21 -37.50247 158.13743 36294 ft 480 kts 302°
2026-04-27 14:22 -37.46580 158.06718 36293 ft 480 kts 302°
2026-04-27 14:22 -37.42909 157.99705 36293 ft 480 kts 302°
2026-04-27 14:23 -37.39228 157.92692 36294 ft 480 kts 302°
2026-04-27 14:23 -37.35542 157.85683 36293 ft 481 kts 302°
2026-04-27 14:24 -37.31849 157.78677 36294 ft 481 kts 302°
2026-04-27 14:24 -37.28149 157.71671 36293 ft 481 kts 302°
2026-04-27 14:25 -37.24444 157.64668 36299 ft 482 kts 302°
2026-04-27 14:25 -37.20730 157.57659 36302 ft 482 kts 302°
2026-04-27 14:26 -37.17010 157.50655 36302 ft 483 kts 302°
2026-04-27 14:26 -37.13278 157.43648 36302 ft 483 kts 302°
2026-04-27 14:27 -37.09566 157.36691 36301 ft 484 kts 303°
2026-04-27 14:27 -37.05820 157.29685 36314 ft 484 kts 303°
2026-04-27 14:28 -37.02070 157.22687 36299 ft 484 kts 303°
2026-04-27 14:28 -36.98314 157.15696 36300 ft 484 kts 303°
2026-04-27 14:29 -36.94551 157.08700 36305 ft 485 kts 303°
2026-04-27 14:29 -36.90785 157.01710 36299 ft 485 kts 303°
2026-04-27 14:30 -36.87018 156.94730 36299 ft 485 kts 303°
2026-04-27 14:30 -36.83240 156.87751 36305 ft 485 kts 303°
2026-04-27 14:31 -36.79456 156.80779 36300 ft 485 kts 303°
2026-04-27 14:31 -36.75669 156.73819 36302 ft 485 kts 303°
2026-04-27 14:32 -36.71876 156.66858 36301 ft 486 kts 303°
2026-04-27 14:32 -36.68079 156.59902 36301 ft 486 kts 303°
2026-04-27 14:33 -36.64917 156.54120 36299 ft 486 kts 303°
2026-04-27 14:33 -36.61111 156.47171 36301 ft 486 kts 303°
2026-04-27 14:34 -36.57298 156.40224 36300 ft 486 kts 303°
2026-04-27 14:34 -36.53480 156.33285 36299 ft 487 kts 303°
2026-04-27 14:35 -36.49653 156.26343 36300 ft 487 kts 303°
2026-04-27 14:35 -36.45818 156.19404 36309 ft 487 kts 303°
2026-04-27 14:36 -36.41977 156.12465 36317 ft 487 kts 303°
2026-04-27 14:36 -36.38137 156.05539 36314 ft 487 kts 303°
2026-04-27 14:37 -36.34286 155.98609 36316 ft 488 kts 304°
2026-04-27 14:37 -36.30431 155.91688 36305 ft 488 kts 304°
2026-04-27 14:38 -36.26569 155.84771 36301 ft 488 kts 304°
2026-04-27 14:38 -36.22704 155.77860 36301 ft 488 kts 304°
2026-04-27 14:39 -36.18838 155.70957 36299 ft 488 kts 304°
2026-04-27 14:39 -36.14968 155.64063 36300 ft 488 kts 304°
2026-04-27 14:40 -36.11100 155.57178 36300 ft 488 kts 304°
2026-04-27 14:40 -36.07221 155.50297 36301 ft 487 kts 304°
2026-04-27 14:41 -36.03342 155.43432 36302 ft 487 kts 304°
2026-04-27 14:41 -35.99460 155.36578 36300 ft 487 kts 304°
2026-04-27 14:42 -35.95571 155.29721 36320 ft 489 kts 304°
2026-04-27 14:42 -35.91665 155.22846 36309 ft 489 kts 304°
2026-04-27 14:43 -35.87755 155.15975 36308 ft 489 kts 304°
2026-04-27 14:43 -35.83837 155.09107 36301 ft 489 kts 304°
2026-04-27 14:44 -35.79916 155.02248 36321 ft 490 kts 304°
2026-04-27 14:44 -35.76015 154.95439 36305 ft 490 kts 304°
2026-04-27 14:45 -35.72083 154.88584 36305 ft 490 kts 304°
2026-04-27 14:45 -35.68149 154.81743 36311 ft 490 kts 304°
2026-04-27 14:46 -35.64214 154.74913 36313 ft 490 kts 304°
2026-04-27 14:46 -35.60401 154.67981 36309 ft 489 kts 299°
2026-04-27 14:47 -35.57029 154.60734 36321 ft 489 kts 298°
2026-04-27 14:47 -35.53733 154.53439 36306 ft 488 kts 298°
2026-04-27 14:48 -35.50451 154.46158 36325 ft 488 kts 298°
2026-04-27 14:48 -35.45501 154.35246 36322 ft 488 kts 298°
2026-04-27 14:49 -35.42192 154.27985 36316 ft 488 kts 298°
2026-04-27 14:49 -35.38878 154.20728 36307 ft 488 kts 298°
2026-04-27 14:50 -35.35558 154.13477 36333 ft 488 kts 298°
2026-04-27 14:50 -35.32235 154.06234 36337 ft 488 kts 298°
2026-04-27 14:51 -35.28907 153.98989 36337 ft 488 kts 298°
2026-04-27 14:51 -35.26139 153.92977 36345 ft 488 kts 298°
2026-04-27 14:52 -35.22249 153.84541 36347 ft 487 kts 298°
2026-04-27 14:52 -35.18912 153.77329 36340 ft 487 kts 298°
2026-04-27 14:53 -35.15567 153.70113 36336 ft 488 kts 298°
2026-04-27 14:53 -35.12221 153.62910 36337 ft 488 kts 298°
2026-04-27 14:54 -35.08887 153.55750 36340 ft 488 kts 298°
2026-04-27 14:54 -35.05524 153.48544 36341 ft 488 kts 298°
2026-04-27 14:55 -35.02163 153.41348 36353 ft 488 kts 298°
2026-04-27 14:55 -34.98795 153.34153 36345 ft 488 kts 298°
2026-04-27 14:56 -34.95424 153.26968 36345 ft 488 kts 299°
2026-04-27 14:56 -34.92046 153.19787 36346 ft 488 kts 299°
2026-04-27 14:57 -34.88663 153.12611 36351 ft 489 kts 299°
2026-04-27 14:57 -34.85276 153.05438 36347 ft 489 kts 299°
2026-04-27 14:58 -34.81883 152.98267 36351 ft 489 kts 299°
2026-04-27 14:58 -34.78484 152.91100 36349 ft 489 kts 299°
2026-04-27 14:59 -34.75082 152.83946 36349 ft 489 kts 299°
2026-04-27 14:59 -34.71675 152.76789 36345 ft 489 kts 299°
2026-04-27 15:00 -34.68263 152.69639 36348 ft 489 kts 299°
2026-04-27 15:00 -34.64848 152.62492 36348 ft 489 kts 299°
2026-04-27 15:01 -34.61423 152.55344 36348 ft 490 kts 299°
2026-04-27 15:01 -34.57988 152.48200 36347 ft 490 kts 299°
2026-04-27 15:02 -34.54555 152.41059 36347 ft 490 kts 299°
2026-04-27 15:02 -34.51116 152.33919 36347 ft 490 kts 299°
2026-04-27 15:03 -34.47673 152.26787 36348 ft 491 kts 299°
2026-04-27 15:03 -34.44216 152.19645 36347 ft 491 kts 299°
2026-04-27 15:04 -34.40762 152.12523 36349 ft 491 kts 299°
2026-04-27 15:04 -34.37315 152.05431 36345 ft 491 kts 299°
2026-04-27 15:05 -34.33848 151.98310 36347 ft 492 kts 300°
2026-04-27 15:05 -34.30371 151.91184 36351 ft 492 kts 300°
2026-04-27 15:06 -34.26889 151.84065 36348 ft 492 kts 300°
2026-04-27 15:06 -34.23402 151.76948 36338 ft 492 kts 300°
2026-04-27 15:07 -34.19910 151.69839 36347 ft 492 kts 300°
2026-04-27 15:07 -34.16417 151.62734 36347 ft 492 kts 300°
2026-04-27 15:08 -34.12916 151.55631 36351 ft 492 kts 300°
2026-04-27 15:08 -34.09410 151.48530 36348 ft 494 kts 300°
2026-04-27 15:09 -34.05880 151.41397 36347 ft 496 kts 300°
2026-04-27 15:09 -34.02343 151.34268 36350 ft 496 kts 300°
2026-04-27 15:10 -33.98793 151.27126 36347 ft 496 kts 300°
2026-04-27 15:10 -33.95295 151.19962 36349 ft 495 kts 296°
2026-04-27 15:11 -33.92805 151.12276 36348 ft 493 kts 287°
2026-04-27 15:11 -33.90718 151.04405 36347 ft 493 kts 285°
2026-04-27 15:12 -33.88690 150.96518 36349 ft 493 kts 285°
2026-04-27 15:12 -33.86646 150.88639 36347 ft 494 kts 286°
2026-04-27 15:13 -33.84579 150.80758 36350 ft 494 kts 286°
2026-04-27 15:13 -33.82503 150.72883 36352 ft 494 kts 286°
2026-04-27 15:14 -33.80422 150.65012 36347 ft 494 kts 286°
2026-04-27 15:14 -33.78333 150.57137 36350 ft 494 kts 286°
2026-04-27 15:15 -33.76240 150.49266 36354 ft 494 kts 286°
2026-04-27 15:15 -33.74157 150.41457 36345 ft 494 kts 286°
2026-04-27 15:16 -33.72053 150.33591 36349 ft 494 kts 286°
2026-04-27 15:16 -33.69945 150.25739 36346 ft 495 kts 286°
2026-04-27 15:17 -33.67811 150.17887 36347 ft 494 kts 286°
2026-04-27 15:17 -33.65669 150.10043 36351 ft 494 kts 286°
2026-04-27 15:18 -33.63524 150.02199 36349 ft 494 kts 286°
2026-04-27 15:18 -33.61376 149.94365 36347 ft 495 kts 286°
2026-04-27 15:19 -33.59217 149.86514 36342 ft 496 kts 286°
2026-04-27 15:19 -33.57055 149.78659 36336 ft 496 kts 286°
2026-04-27 15:20 -33.55251 149.72130 36336 ft 497 kts 286°
2026-04-27 15:20 -33.53070 149.64259 36339 ft 498 kts 286°
2026-04-27 15:21 -33.50885 149.56391 36341 ft 498 kts 286°
2026-04-27 15:21 -33.48691 149.48511 36343 ft 499 kts 286°
2026-04-27 15:22 -33.46487 149.40618 36333 ft 500 kts 286°
2026-04-27 15:22 -33.44274 149.32713 36327 ft 501 kts 286°
2026-04-27 15:23 -33.42054 149.24806 36333 ft 502 kts 286°
2026-04-27 15:23 -33.39823 149.16885 36326 ft 503 kts 286°
2026-04-27 15:24 -33.37583 149.08950 36332 ft 504 kts 286°
2026-04-27 15:24 -33.35333 149.01002 36319 ft 505 kts 285°
2026-04-27 15:25 -33.33072 148.93037 36316 ft 506 kts 286°
2026-04-27 15:25 -33.30800 148.85059 36569 ft 506 kts 285°
2026-04-27 15:26 -33.29666 148.81086 36802 ft 505 kts 285°
2026-04-27 15:26 -33.28530 148.77115 37034 ft 504 kts 285°
2026-04-27 15:26 -33.27397 148.73156 37283 ft 503 kts 285°
2026-04-27 15:26 -33.26268 148.69215 37528 ft 501 kts 285°
2026-04-27 15:27 -33.25141 148.65285 37753 ft 499 kts 285°
2026-04-27 15:27 -33.24013 148.61358 37920 ft 499 kts 285°
2026-04-27 15:27 -33.22884 148.57435 38055 ft 500 kts 285°
2026-04-27 15:27 -33.21755 148.53513 38186 ft 500 kts 285°
2026-04-27 15:28 -33.20621 148.49576 38294 ft 501 kts 285°
2026-04-27 15:28 -33.19484 148.45635 38304 ft 504 kts 285°
2026-04-27 15:28 -33.17193 148.37720 38303 ft 505 kts 285°
2026-04-27 15:29 -33.14894 148.29802 38303 ft 505 kts 285°
2026-04-27 15:29 -33.12118 148.22091 38306 ft 510 kts 297°
2026-04-27 15:30 -33.08399 148.14861 38302 ft 512 kts 299°
2026-04-27 15:30 -33.04523 148.07751 38303 ft 512 kts 300°
2026-04-27 15:31 -33.00625 148.00651 38303 ft 512 kts 300°
2026-04-27 15:31 -32.96742 147.93550 38302 ft 513 kts 300°
2026-04-27 15:32 -32.92848 147.86409 38303 ft 514 kts 300°
2026-04-27 15:32 -32.88974 147.79316 38303 ft 514 kts 300°
2026-04-27 15:33 -32.85071 147.72189 38303 ft 514 kts 300°
2026-04-27 15:33 -32.81171 147.65081 38302 ft 513 kts 300°
2026-04-27 15:34 -32.77270 147.57984 38303 ft 512 kts 300°
2026-04-27 15:34 -32.73366 147.50893 38303 ft 513 kts 300°
2026-04-27 15:35 -32.69459 147.43815 38302 ft 513 kts 300°
2026-04-27 15:35 -32.65548 147.36736 38302 ft 513 kts 300°
2026-04-27 15:36 -32.61628 147.29659 38303 ft 513 kts 300°
2026-04-27 15:36 -32.57703 147.22585 38303 ft 514 kts 300°
2026-04-27 15:37 -32.53772 147.15515 38303 ft 514 kts 300°
2026-04-27 15:37 -32.49830 147.08441 38303 ft 515 kts 300°
2026-04-27 15:38 -32.45883 147.01366 38303 ft 515 kts 300°
2026-04-27 15:38 -32.41924 146.94287 38302 ft 515 kts 300°
2026-04-27 15:39 -32.37965 146.87212 38302 ft 516 kts 300°
2026-04-27 15:39 -32.34018 146.80177 38303 ft 517 kts 300°
2026-04-27 15:40 -32.30034 146.73096 38304 ft 518 kts 300°
2026-04-27 15:40 -32.26035 146.66004 38302 ft 519 kts 300°
2026-04-27 15:41 -32.22030 146.58904 38303 ft 520 kts 299°
2026-04-27 15:41 -32.18014 146.51798 38294 ft 520 kts 299°
2026-04-27 15:42 -32.13992 146.44687 38289 ft 522 kts 299°
2026-04-27 15:42 -32.09956 146.37576 38294 ft 522 kts 299°
2026-04-27 15:43 -32.05910 146.30465 38291 ft 522 kts 299°
2026-04-27 15:43 -32.01862 146.23357 38294 ft 523 kts 299°
2026-04-27 15:44 -31.97805 146.16250 38294 ft 523 kts 299°
2026-04-27 15:44 -31.93741 146.09143 38295 ft 523 kts 299°
2026-04-27 15:45 -31.89671 146.02036 38294 ft 524 kts 299°
2026-04-27 15:45 -31.85593 145.94930 38294 ft 524 kts 299°
2026-04-27 15:46 -31.81512 145.87832 38294 ft 524 kts 299°
2026-04-27 15:46 -31.77452 145.80784 38294 ft 524 kts 299°
2026-04-27 15:47 -31.73370 145.73712 38295 ft 523 kts 299°
2026-04-27 15:47 -31.69285 145.66651 38294 ft 523 kts 299°
2026-04-27 15:48 -31.65201 145.59602 38294 ft 522 kts 299°
2026-04-27 15:49 -31.59079 145.49052 38294 ft 520 kts 300°
2026-04-27 15:49 -31.55005 145.42047 38289 ft 519 kts 300°
2026-04-27 15:50 -31.50931 145.35059 38294 ft 519 kts 300°
2026-04-27 15:50 -31.46860 145.28086 38295 ft 518 kts 300°
2026-04-27 15:51 -31.42793 145.21133 38294 ft 517 kts 300°
2026-04-27 15:51 -31.38728 145.14195 38295 ft 516 kts 300°
2026-04-27 15:52 -31.34669 145.07281 38294 ft 515 kts 300°
2026-04-27 15:52 -31.30609 145.00380 38295 ft 514 kts 300°
2026-04-27 15:53 -31.26551 144.93492 38294 ft 514 kts 300°
2026-04-27 15:53 -31.22493 144.86618 38294 ft 513 kts 300°
2026-04-27 15:54 -31.18440 144.79766 38293 ft 513 kts 300°
2026-04-27 15:54 -31.14390 144.72922 38283 ft 512 kts 300°
2026-04-27 15:55 -31.10337 144.66090 38283 ft 512 kts 300°
2026-04-27 15:55 -31.06279 144.59266 38284 ft 511 kts 300°
2026-04-27 15:56 -31.02228 144.52462 38284 ft 511 kts 300°
2026-04-27 15:56 -30.98176 144.45667 38282 ft 511 kts 300°
2026-04-27 15:57 -30.94120 144.38877 38269 ft 510 kts 300°
2026-04-27 15:57 -30.90064 144.32096 38265 ft 510 kts 300°
2026-04-27 15:58 -30.86008 144.25332 38265 ft 509 kts 300°
2026-04-27 15:58 -30.81950 144.18574 38264 ft 509 kts 300°
2026-04-27 15:59 -30.77888 144.11823 38266 ft 509 kts 300°
2026-04-27 15:59 -30.73823 144.05077 38260 ft 509 kts 300°
2026-04-27 16:00 -30.69760 143.98344 38256 ft 509 kts 300°
2026-04-27 16:00 -30.65705 143.91641 38258 ft 505 kts 300°
2026-04-27 16:01 -30.61665 143.84973 38257 ft 505 kts 300°
2026-04-27 16:01 -30.57625 143.78310 38258 ft 505 kts 300°
2026-04-27 16:02 -30.53579 143.71650 38255 ft 505 kts 300°
2026-04-27 16:02 -30.49529 143.64993 38256 ft 505 kts 300°
2026-04-27 16:03 -30.45477 143.58344 38257 ft 505 kts 300°
2026-04-27 16:03 -30.41420 143.51704 38257 ft 504 kts 300°
2026-04-27 16:04 -30.37370 143.45084 38250 ft 504 kts 300°
2026-04-27 16:04 -30.33319 143.38471 38248 ft 504 kts 300°
2026-04-27 16:05 -30.29286 143.31900 38247 ft 503 kts 300°
2026-04-27 16:05 -30.25228 143.25303 38247 ft 503 kts 300°
2026-04-27 16:06 -30.21176 143.18718 38229 ft 502 kts 301°
2026-04-27 16:06 -30.17127 143.12159 38442 ft 500 kts 301°
2026-04-27 16:06 -30.15108 143.08893 38640 ft 498 kts 301°
2026-04-27 16:07 -30.13098 143.05646 38881 ft 496 kts 301°
2026-04-27 16:07 -30.11092 143.02404 39053 ft 495 kts 301°
2026-04-27 16:07 -30.09741 143.00222 39153 ft 495 kts 301°
2026-04-27 16:07 -30.07086 142.95939 39320 ft 495 kts 301°
2026-04-27 16:08 -30.05735 142.93761 39418 ft 494 kts 301°
2026-04-27 16:08 -30.03736 142.90541 39535 ft 493 kts 301°
2026-04-27 16:08 -30.01735 142.87321 39652 ft 493 kts 301°
2026-04-27 16:09 -29.97734 142.80892 39887 ft 493 kts 301°
2026-04-27 16:09 -29.93770 142.74531 40119 ft 491 kts 301°
2026-04-27 16:09 -29.91774 142.71331 40210 ft 491 kts 301°
2026-04-27 16:10 -29.83750 142.58501 40229 ft 494 kts 301°
2026-04-27 16:11 -29.77729 142.48897 40230 ft 493 kts 302°
2026-04-27 16:12 -29.71705 142.39314 40230 ft 492 kts 302°
2026-04-27 16:13 -29.65679 142.29751 40229 ft 492 kts 302°
2026-04-27 16:13 -29.59650 142.20205 40228 ft 492 kts 302°
2026-04-27 16:14 -29.51601 142.07497 40220 ft 491 kts 302°
2026-04-27 16:15 -29.43552 141.94825 40220 ft 490 kts 302°
2026-04-27 16:16 -29.35545 141.82261 40220 ft 489 kts 302°
2026-04-27 16:17 -29.27511 141.69691 40220 ft 489 kts 302°
2026-04-27 16:18 -29.19474 141.57155 40220 ft 488 kts 302°
2026-04-27 16:19 -29.15454 141.50900 40220 ft 488 kts 302°
2026-04-27 16:20 -29.07418 141.38421 40220 ft 487 kts 302°
2026-04-27 16:21 -29.01388 141.29083 40216 ft 486 kts 302°
2026-04-27 16:22 -28.93350 141.16666 40211 ft 486 kts 302°
2026-04-27 16:22 -28.87318 141.07373 40210 ft 485 kts 302°
2026-04-27 16:23 -28.81285 140.98098 40210 ft 485 kts 302°
2026-04-27 16:24 -28.77267 140.91933 40210 ft 485 kts 302°
2026-04-27 16:25 -28.69218 140.79609 40195 ft 484 kts 302°
2026-04-27 16:26 -28.61193 140.67358 40194 ft 484 kts 302°
2026-04-27 16:27 -28.53136 140.55094 40180 ft 483 kts 303°
2026-04-27 16:28 -28.43066 140.39817 40186 ft 482 kts 303°
2026-04-27 16:29 -28.32999 140.24597 40186 ft 482 kts 303°
2026-04-27 16:30 -28.24942 140.12456 40180 ft 481 kts 303°
2026-04-27 16:31 -28.14858 139.97307 40194 ft 481 kts 303°
2026-04-27 16:32 -28.08800 139.88233 40194 ft 481 kts 303°
2026-04-27 16:33 -28.02737 139.79170 40194 ft 481 kts 303°
2026-04-27 16:33 -27.98689 139.73131 40194 ft 481 kts 303°
2026-04-27 16:34 -27.94641 139.67099 40194 ft 481 kts 303°
2026-04-27 16:34 -27.90587 139.61067 40194 ft 482 kts 303°
2026-04-27 16:35 -27.86525 139.55030 40191 ft 482 kts 303°
2026-04-27 16:36 -27.80449 139.46018 40194 ft 484 kts 303°
2026-04-27 16:36 -27.76367 139.39973 40187 ft 484 kts 303°
2026-04-27 16:37 -27.72282 139.33934 40180 ft 484 kts 303°
2026-04-27 16:37 -27.68187 139.27886 40180 ft 485 kts 303°
2026-04-27 16:38 -27.64080 139.21830 40190 ft 486 kts 303°
2026-04-27 16:38 -27.59964 139.15770 40185 ft 487 kts 303°
2026-04-27 16:39 -27.55843 139.09710 40186 ft 488 kts 302°
2026-04-27 16:39 -27.51709 139.03639 40180 ft 488 kts 302°
2026-04-27 16:40 -27.47565 138.97563 40187 ft 489 kts 302°
2026-04-27 16:40 -27.43412 138.91481 40180 ft 490 kts 302°
2026-04-27 16:41 -27.39249 138.85394 40180 ft 491 kts 302°
2026-04-27 16:41 -27.35080 138.79307 40185 ft 491 kts 302°
2026-04-27 16:42 -27.30901 138.73213 40188 ft 492 kts 302°
2026-04-27 16:42 -27.26717 138.67121 40174 ft 492 kts 302°
2026-04-27 16:43 -27.22529 138.61030 40174 ft 493 kts 302°
2026-04-27 16:43 -27.18338 138.54944 40174 ft 493 kts 302°
2026-04-27 16:44 -27.14136 138.48850 40174 ft 494 kts 302°
2026-04-27 16:44 -27.09926 138.42754 40174 ft 494 kts 302°
2026-04-27 16:45 -27.05719 138.36669 40174 ft 494 kts 302°
2026-04-27 16:45 -27.01502 138.30579 40174 ft 494 kts 302°
2026-04-27 16:46 -26.97284 138.24497 40173 ft 494 kts 302°
2026-04-27 16:46 -26.93063 138.18417 40175 ft 494 kts 302°
2026-04-27 16:47 -26.88833 138.12336 40173 ft 494 kts 302°
2026-04-27 16:47 -26.84605 138.06264 40174 ft 495 kts 302°
2026-04-27 16:48 -26.80370 138.00190 40174 ft 495 kts 302°
2026-04-27 16:48 -26.76133 137.94123 40175 ft 495 kts 302°
2026-04-27 16:49 -26.69768 137.85023 40174 ft 495 kts 302°
2026-04-27 16:49 -26.65548 137.78999 40166 ft 495 kts 302°
2026-04-27 16:50 -26.61299 137.72942 40165 ft 495 kts 302°
2026-04-27 16:50 -26.57049 137.66895 40165 ft 495 kts 302°
2026-04-27 16:51 -26.52800 137.60854 40165 ft 494 kts 302°
2026-04-27 16:51 -26.48550 137.54820 40165 ft 494 kts 302°
2026-04-27 16:52 -26.44295 137.48789 40164 ft 494 kts 302°
2026-04-27 16:52 -26.40038 137.42762 40165 ft 494 kts 302°
2026-04-27 16:53 -26.35785 137.36748 40165 ft 494 kts 302°
2026-04-27 16:53 -26.31532 137.30742 40165 ft 494 kts 302°
2026-04-27 16:54 -26.27274 137.24739 40164 ft 493 kts 302°
2026-04-27 16:54 -26.23021 137.18749 40165 ft 493 kts 301°
2026-04-27 16:55 -26.19486 137.13777 40164 ft 492 kts 301°
2026-04-27 16:55 -26.15233 137.07803 40165 ft 492 kts 301°
2026-04-27 16:56 -26.10984 137.01839 40165 ft 491 kts 301°
2026-04-27 16:56 -26.06735 136.95887 40165 ft 491 kts 301°
2026-04-27 16:57 -26.02490 136.89946 40164 ft 490 kts 301°
2026-04-27 16:57 -25.98250 136.84019 40165 ft 490 kts 301°
2026-04-27 16:58 -25.94012 136.78106 40156 ft 488 kts 301°
2026-04-27 16:58 -25.89782 136.72209 40155 ft 488 kts 301°
2026-04-27 16:59 -25.85551 136.66327 40156 ft 487 kts 301°
2026-04-27 16:59 -25.81330 136.60456 40155 ft 486 kts 301°
2026-04-27 17:00 -25.74998 136.51664 40156 ft 486 kts 301°
2026-04-27 17:01 -25.70776 136.45813 40156 ft 486 kts 301°
2026-04-27 17:01 -25.66548 136.39962 40156 ft 486 kts 301°
2026-04-27 17:02 -25.62322 136.34122 40155 ft 486 kts 301°
2026-04-27 17:02 -25.58089 136.28279 40156 ft 486 kts 301°
2026-04-27 17:03 -25.53885 136.22484 40156 ft 486 kts 301°
2026-04-27 17:03 -25.49656 136.16663 40156 ft 485 kts 301°
2026-04-27 17:04 -25.45427 136.10848 40156 ft 485 kts 301°
2026-04-27 17:04 -25.41198 136.05039 40155 ft 485 kts 301°
2026-04-27 17:05 -25.36966 135.99233 40156 ft 485 kts 301°
2026-04-27 17:05 -25.32734 135.93436 40156 ft 484 kts 301°
2026-04-27 17:06 -25.28510 135.87658 40155 ft 483 kts 301°
2026-04-27 17:06 -25.24288 135.81887 40156 ft 482 kts 301°
2026-04-27 17:07 -25.20071 135.76129 40156 ft 482 kts 301°
2026-04-27 17:07 -25.15845 135.70367 40156 ft 482 kts 301°
2026-04-27 17:08 -25.11622 135.64617 40157 ft 482 kts 301°
2026-04-27 17:08 -25.07396 135.58870 40156 ft 482 kts 301°
2026-04-27 17:09 -25.03176 135.53139 40155 ft 481 kts 301°
2026-04-27 17:09 -24.98954 135.47410 40156 ft 481 kts 301°
2026-04-27 17:10 -24.94729 135.41684 40156 ft 481 kts 301°
2026-04-27 17:10 -24.90499 135.35959 40156 ft 481 kts 301°
2026-04-27 17:11 -24.86301 135.30285 40156 ft 481 kts 301°
2026-04-27 17:11 -24.79967 135.21735 40155 ft 480 kts 301°
2026-04-27 17:12 -24.73628 135.13194 40155 ft 480 kts 301°
2026-04-27 17:13 -24.69399 135.07504 40156 ft 480 kts 301°
2026-04-27 17:13 -24.65171 135.01824 40156 ft 479 kts 301°
2026-04-27 17:14 -24.60948 134.96155 40156 ft 479 kts 301°
2026-04-27 17:14 -24.56722 134.90489 40156 ft 479 kts 301°
2026-04-27 17:15 -24.52496 134.84830 40156 ft 479 kts 301°
2026-04-27 17:15 -24.48273 134.79181 40155 ft 478 kts 301°
2026-04-27 17:16 -24.44048 134.73537 40156 ft 478 kts 301°
2026-04-27 17:16 -24.39822 134.67898 40155 ft 478 kts 301°
2026-04-27 17:17 -24.35594 134.62262 40157 ft 478 kts 301°
2026-04-27 17:17 -24.31366 134.56635 40156 ft 478 kts 301°
2026-04-27 17:18 -24.25030 134.48211 40156 ft 477 kts 301°
2026-04-27 17:18 -24.20803 134.42600 40156 ft 477 kts 301°
2026-04-27 17:19 -24.16575 134.36994 40155 ft 477 kts 301°
2026-04-27 17:19 -24.12344 134.31391 40155 ft 477 kts 301°
2026-04-27 17:20 -24.08112 134.25791 40157 ft 478 kts 301°
2026-04-27 17:20 -24.03904 134.20231 40155 ft 478 kts 301°
2026-04-27 17:21 -23.99666 134.14638 40154 ft 477 kts 301°
2026-04-27 17:21 -23.95424 134.09045 40156 ft 478 kts 301°
2026-04-27 17:22 -23.91181 134.03457 40156 ft 478 kts 301°
2026-04-27 17:22 -23.86937 133.97875 40156 ft 478 kts 301°
2026-04-27 17:23 -23.82688 133.92292 40156 ft 478 kts 301°
2026-04-27 17:23 -23.78658 133.86578 40159 ft 470 kts 295°
2026-04-27 17:24 -23.75161 133.80574 40155 ft 468 kts 293°
2026-04-27 17:24 -23.71762 133.74536 40155 ft 467 kts 293°
2026-04-27 17:25 -23.68372 133.68495 40156 ft 467 kts 293°
2026-04-27 17:25 -23.64970 133.62462 40156 ft 467 kts 293°
2026-04-27 17:26 -23.61557 133.56431 40156 ft 467 kts 294°
2026-04-27 17:26 -23.58160 133.50442 40155 ft 467 kts 294°
2026-04-27 17:27 -23.54744 133.44425 40155 ft 466 kts 294°
2026-04-27 17:27 -23.51328 133.38415 40156 ft 466 kts 294°
2026-04-27 17:28 -23.47915 133.32414 40156 ft 466 kts 294°
2026-04-27 17:29 -23.42787 133.23415 40155 ft 466 kts 294°
2026-04-27 17:29 -23.39371 133.17428 40156 ft 465 kts 294°
2026-04-27 17:30 -23.35951 133.11441 40155 ft 466 kts 294°
2026-04-27 17:30 -23.30818 133.02469 40155 ft 466 kts 294°
2026-04-27 17:31 -23.27390 132.96486 40155 ft 465 kts 294°
2026-04-27 17:31 -23.23968 132.90523 40156 ft 465 kts 294°
2026-04-27 17:32 -23.18831 132.81579 40156 ft 465 kts 294°
2026-04-27 17:33 -23.15402 132.75619 40152 ft 465 kts 294°
2026-04-27 17:33 -23.11972 132.69665 40146 ft 465 kts 294°
2026-04-27 17:34 -23.08539 132.63711 40146 ft 465 kts 294°
2026-04-27 17:34 -23.05102 132.57758 40147 ft 465 kts 294°
2026-04-27 17:35 -23.01661 132.51805 40147 ft 465 kts 294°
2026-04-27 17:35 -22.98222 132.45863 40146 ft 464 kts 294°
2026-04-27 17:36 -22.94783 132.39928 40146 ft 464 kts 294°
2026-04-27 17:36 -22.91347 132.34002 40147 ft 464 kts 294°
2026-04-27 17:37 -22.87926 132.28111 40147 ft 464 kts 294°
2026-04-27 17:37 -22.84482 132.22187 40147 ft 464 kts 294°
2026-04-27 17:38 -22.81033 132.16261 40146 ft 464 kts 294°
2026-04-27 17:38 -22.77585 132.10343 40146 ft 465 kts 294°
2026-04-27 17:39 -22.74135 132.04431 40147 ft 464 kts 294°
2026-04-27 17:39 -22.70688 131.98527 40139 ft 463 kts 295°
2026-04-27 17:40 -22.67244 131.92638 40137 ft 462 kts 295°
2026-04-27 17:40 -22.63801 131.86754 40137 ft 462 kts 295°
2026-04-27 17:41 -22.60359 131.80880 40137 ft 462 kts 295°
2026-04-27 17:41 -22.56913 131.75006 40137 ft 462 kts 295°
2026-04-27 17:42 -22.53467 131.69138 40137 ft 462 kts 295°
2026-04-27 17:42 -22.50017 131.63270 40137 ft 462 kts 295°
2026-04-27 17:43 -22.46564 131.57404 40137 ft 462 kts 295°
2026-04-27 17:43 -22.43133 131.51581 40126 ft 462 kts 295°
2026-04-27 17:44 -22.39680 131.45728 40126 ft 462 kts 295°
2026-04-27 17:44 -22.36227 131.39882 40129 ft 461 kts 295°
2026-04-27 17:45 -22.32773 131.34040 40127 ft 461 kts 295°
2026-04-27 17:45 -22.29319 131.28202 40119 ft 462 kts 295°
2026-04-27 17:46 -22.26442 131.23345 40121 ft 462 kts 295°
2026-04-27 17:46 -22.22977 131.17504 40118 ft 462 kts 295°
2026-04-27 17:47 -22.19512 131.11668 40119 ft 462 kts 295°
2026-04-27 17:47 -22.16042 131.05830 40119 ft 462 kts 295°